Skip Page Navigation
NASA JPL Caltech
NASA Logo - Jet Propulsion Laboratory + View the NASA Portal
+ Center for Near-Earth Object Studies
JPL Home Earth Solar System Stars & Galaxies Technology
JPL Solar System Dynamics
BODIES ORBITS EPHEMERIDES TOOLS PHYSICAL DATA DISCOVERY FAQ SITE MAP
IMPORTANT: The SSD Announcement email list is now available. Major changes are coming in the near future, including possible hostname and/or URL changes. To be notified of such changes, subscribe to this email list.

Please visit this page for more details.


JPL Small-Body Database Browser
Search: [ help ]  
27273 (2000 AT34)
Classification: Main-belt Asteroid          SPK-ID: 2027273
Ephemeris | Orbit Diagram | Orbital Elements | Mission Design | Physical Parameters | Discovery Circumstances | Close-Approach Data ]

[ show orbit diagram ]
Orbital Elements at Epoch 2459000.5 (2020-May-31.0) TDB
Reference: JPL 26 (heliocentric ecliptic J2000)
 Element Value Uncertainty (1-sigma)   Units 
e .1699865876377184 3.1261e-08  
a 2.405364689063819 8.9861e-09 au
q 1.996484953545598 7.8077e-08 au
i 10.75472405533236 5.4549e-06 deg
node 314.4347729990271 1.7684e-05 deg
peri 295.1884607555369 2.4841e-05 deg
M 55.02548241806786 1.732e-05 deg
tp 2458792.227858920186
(2019-Nov-04.72785892)
6.5476e-05 TDB
period 1362.604515105784
3.73
7.6357e-06
2.091e-08
d
yr
n .2641999171506135 1.4805e-09 deg/d
Q 2.814244424582039 1.0514e-08 au
  Orbit Determination Parameters
   # obs. used (total)      1778  
   data-arc span      10463 days (28.65 yr)  
   first obs. used      1990-09-17  
   last obs. used      2019-05-11  
   planetary ephem.      DE431  
   SB-pert. ephem.      SB431-N16  
   condition code      0  
   norm. resid. RMS      .4887  
   source      ORB  
   producer      Otto Matic  
   solution date      2019-May-30 03:27:29  

Additional Information
 Earth MOID = 1.00923 au 
 Jupiter MOID = 2.34022 au 
 T_jup = 3.480 
[ show covariance matrix ]

Ephemeris | Orbit Diagram | Orbital Elements | Mission Design | Physical Parameters | Discovery Circumstances | Close-Approach Data ]

Physical Parameter Table
Parameter Symbol Value Units Sigma Reference Notes
absolute magnitude H 14.0   n/a MPO337489  

27273 (2000 AT34)          Discovered 2000-Jan-03 by LINEAR at Socorro
Reference: 20010804/Numbers.arcLast Updated: 2004-04-19

[ show close-approach data ]
Alternate Designations
 2000 AT34 = 1990 SE19 
Ephemeris | Orbit Diagram | Orbital Elements | Mission Design | Physical Parameters | Discovery Circumstances | Close-Approach Data ]
ABOUT SSD CREDITS/AWARDS PRIVACY/COPYRIGHT GLOSSARY LINKS
FirstGov 2020-Mar-29 06:00 UT
(server date/time)  
NASA Home Page
Site Manager:   Ryan S. Park
Webmaster  Alan B. Chamberlin